[[{"header":{"parameterUnit":"m.s-1","parameterCategory":2,"la1":30.2991,"la2":30.254,"lo1":-89.0895,"lo2":-89.0444,"dy":0.0017,"dx":0.0017,"nx":28,"ny":28,"refTime":"2024-04-16T09:00:00:Z","depth":"0","parameterNumber":2,"parameterNumberName":"U-component_of_CURRENTS"},"data":[0,0,0,0,0,0,0,0,0,0,0,0,0,0,0,0,0,0,0,0,0,0,0,0,0,0,0,0,0,0,0,0,0,0,0,0,0,0,0,0,0,0,0,0,0,0,0,0,0,0,0,0,0,0,0,0,0,0,0.24,0.2401,0,0.2473,0.2474,0.2475,0.2512,0.2512,0.2512,0.2512,0.2519,0.252,0.252,0,0,0,0,0,0,0,0,0,0,0,0,0,0.2315,0.2316,0.24,0.2401,0.2402,0.2472,0.2474,0.2475,0.2513,0.2512,0.2512,0.2512,0.2519,0.252,0.252,0,0,0,0,0,0,0,0,0,0,0,0,0,0.2368,0.2317,0.24,0.2427,0.243,0.2472,0.2474,0.2475,0.2513,0.2512,0.2512,0.2512,0.2519,0.252,0.252,0.2527,0,0,0.2522,0.2522,0,0,0,0,0,0,0,0,0.2365,0.2371,0.2423,0.2426,0.2429,0.2481,0.2446,0.2489,0.2513,0.2484,0.2512,0.2512,0.2499,0.2502,0.252,0.2527,0.2528,0.2522,0.2522,0.2522,0.2522,0,0,0,0,0,0,0,0.2361,0.2368,0.2431,0.2423,0.2427,0.2443,0.245,0.2455,0.2492,0.2486,0.2488,0.2493,0.2501,0.2519,0.252,0.2528,0.2522,0.2522,0.2522,0.2523,0.2595,0.2597,0,0,0,0,0,0,0.2347,0.2365,0.2429,0.2433,0.2393,0.2444,0.2453,0.2467,0.2494,0.2498,0.2493,0.2495,0.2518,0.2519,0.252,0.2556,0.2522,0.2523,0.2523,0.2594,0.2596,0.2598,0,0,0,0,0,0,0.2346,0.2353,0.2426,0.2398,0.2408,0.2446,0.2461,0.2468,0.2491,0.25,0.2503,0.2509,0.2518,0.2519,0.2554,0.2556,0.2523,0.2523,0.2592,0.2594,0.2597,0.2611,0,0,0,0,0,0,0.2343,0.2352,0.2355,0.2398,0.2409,0.2461,0.2461,0.247,0.2493,0.2495,0.2514,0.2514,0.2518,0.2554,0.2554,0.2556,0.2524,0.259,0.2593,0.2596,0.2609,0.2614,0.2618,0,0,0,0,0,0.234,0.2344,0.2355,0.2363,0.2414,0.2461,0.247,0.2496,0.2493,0.2514,0.2537,0.2514,0.2573,0.2556,0.2556,0.2557,0.2588,0.2592,0.2596,0.2607,0.2613,0.2618,0,0,0,0,0,0,0.2298,0.235,0.2362,0.2379,0.2421,0.2467,0.2478,0.2498,0.2533,0.253,0.2539,0.2543,0.2571,0.2572,0.2553,0.2592,0.2575,0.2579,0.2583,0.2589,0.2594,0.263,0.2524,0,0,0,0,0,0.2293,0.2317,0.2366,0.238,0.2398,0.2439,0.2458,0.2481,0.2516,0.2531,0.2547,0.2565,0.2587,0.2595,0.2613,0.2634,0.267,0.2637,0.2641,0.2645,0.2679,0.2727,0.2739,0.261,0.261,0.261,0,0,0.2279,0.2309,0.2322,0.2374,0.2403,0.2444,0.2451,0.2485,0.2523,0.2524,0.2571,0.258,0.2599,0.263,0.2641,0.263,0.2706,0.265,0.2653,0.2685,0.2732,0.2745,0.2756,0.2612,0.2612,0.2611,0,0,0.2275,0.2294,0.232,0.2357,0.2406,0.2439,0.245,0.2503,0.2531,0.2579,0.259,0.2621,0.2642,0.2672,0.2683,0.273,0.273,0.2713,0.2762,0.2808,0.2819,0.2829,0.2905,0.2922,0.2713,0.2713,0.2713,0,0.2254,0.2299,0.2334,0.237,0.2398,0.2439,0.2476,0.2517,0.2577,0.2605,0.2596,0.2665,0.2672,0.2727,0.275,0.2739,0.2775,0.273,0.2814,0.2824,0.2834,0.291,0.2928,0.2715,0.2714,0.2714,0.2714,0,0.2288,0.2316,0.2331,0.2398,0.2432,0.2469,0.2528,0.2568,0.2595,0.2635,0.2695,0.2724,0.2768,0.2764,0.2774,0.2843,0.285,0.2811,0.2794,0.2848,0.2925,0.2944,0.2716,0.2716,0.2715,0.2715,0,0,0.2259,0.2341,0.2344,0.2375,0.2449,0.2481,0.2545,0.262,0.2663,0.2714,0.2779,0.2825,0.2839,0.286,0.2865,0.2913,0.3014,0.2898,0.29,0.2969,0.3143,0.3104,0.3121,0.2976,0.2979,0.2981,0.3173,0,0.2276,0.2338,0.238,0.2437,0.2474,0.2528,0.2588,0.2655,0.2707,0.278,0.2828,0.2886,0.2874,0.2895,0.2944,0.3,0.3062,0.2968,0.3088,0.3094,0.3045,0.314,0.2942,0.3091,0.3191,0.3194,0.3197,0,0.2304,0.234,0.2396,0.2465,0.2485,0.2524,0.2615,0.2672,0.2779,0.2825,0.2894,0.2935,0.3041,0.3003,0.3151,0.3088,0.3134,0.3171,0.3177,0.3154,0.3089,0.3053,0.3122,0.3058,0.3226,0.3223,0.3221,0,0.2282,0.2349,0.2391,0.2417,0.2504,0.2535,0.2581,0.2678,0.2744,0.2858,0.2923,0.3025,0.3101,0.3171,0.3261,0.3212,0.3421,0.3349,0.3367,0.3365,0.3233,0.3213,0.3249,0.3459,0.3459,0.3458,0.3458,0,0.2299,0.2328,0.2378,0.2404,0.2456,0.251,0.2582,0.2651,0.2761,0.2845,0.2938,0.3034,0.3146,0.3267,0.3316,0.3425,0.3466,0.3425,0.3421,0.3233,0.3213,0.3178,0.3168,0.3465,0.3464,0.3462,0.3461,0,0.2289,0.2327,0.237,0.2432,0.2453,0.2485,0.2584,0.2636,0.2746,0.2864,0.2912,0.3088,0.3242,0.3355,0.3501,0.3505,0.3498,0.3615,0.3411,0.3379,0.3294,0.3292,0.3221,0.313,0.3672,0.3672,0.3672,0,0.2301,0.2318,0.2371,0.2394,0.2423,0.2476,0.2519,0.2623,0.2684,0.2889,0.2946,0.3144,0.3253,0.3481,0.3519,0.3624,0.3526,0.3516,0.3377,0.331,0.3305,0.314,0.3056,0.3222,0.3218,0.3216,0.3213,0,0.2311,0.2319,0.2354,0.239,0.2422,0.2464,0.2526,0.2576,0.2702,0.281,0.2954,0.3057,0.3259,0.329,0.3441,0.3461,0.3319,0.3461,0.3427,0.3012,0.28,0.27,0.311,0.3188,0.3191,0.3192,0.3194,0.3195,0.2313,0.2325,0.2356,0.2385,0.2414,0.2429,0.2436,0.2511,0.2597,0.2719,0.2873,0.2972,0.3076,0.3238,0.3252,0.3167,0.3167,0.3069,0.3098,0.2957,0.2774,0.316,0.3197,0.3199,0.3201,0.3203,0.3205,0,0.2306,0.2319,0.2348,0.2365,0.2352,0.2386,0.2422,0.2401,0.2443,0.2602,0.2706,0.2785,0.2821,0.289,0.289,0.2821,0.2624,0.2766,0.2479,0.2435,0.2815,0.2698,0.2582,0.2582,0.2582,0.2582,0.2583,0.2583,0.2313,0.232,0.2319,0.2289,0.2287,0.2232,0.2222,0.2208,0.2274,0.2329,0.2381,0.2478,0.2614,0.2691,0.2634,0.257,0.2396,0.2246,0.2321,0.2591,0.2619,0.2646,0.2531,0.2383,0.2383,0.1728,0.1724,0.1721]},{"header":{"parameterUnit":"m.s-1","parameterCategory":2,"la1":30.2991,"la2":30.254,"lo1":-89.0895,"lo2":-89.0444,"dy":0.0017,"dx":0.0017,"nx":28,"ny":28,"refTime":"2024-04-16T09:00:00:Z","depth":"0","parameterNumber":3,"parameterNumberName":"V-component_of_CURRENTS"},"data":[0,0,0,0,0,0,0,0,0,0,0,0,0,0,0,0,0,0,0,0,0,0,0,0,0,0,0,0,0,0,0,0,0,0,0,0,0,0,0,0,0,0,0,0,0,0,0,0,0,0,0,0,0,0,0,0,0,0,0.0026,0.0025,0,-0.0053,-0.0054,-0.0055,-0.0098,-0.0098,-0.0098,-0.0098,-0.0125,-0.0126,-0.0127,0,0,0,0,0,0,0,0,0,0,0,0,0,0.008,0.0079,0.0026,0.0025,0.0024,-0.0052,-0.0054,-0.0055,-0.0098,-0.0098,-0.0098,-0.0098,-0.0125,-0.0126,-0.0127,0,0,0,0,0,0,0,0,0,0,0,0,0,0.0033,0.0079,0.0026,-0.0005,-0.0009,-0.0052,-0.0054,-0.0055,-0.0098,-0.0098,-0.0098,-0.0098,-0.0125,-0.0126,-0.0127,-0.0136,0,0,-0.0131,-0.0131,0,0,0,0,0,0,0,0,0.0036,0.0031,0.0,-0.0003,-0.0007,-0.0064,-0.0045,-0.0079,-0.0098,-0.0066,-0.0098,-0.0098,-0.0099,-0.0102,-0.0121,-0.0137,-0.0138,-0.0131,-0.0132,-0.0132,-0.0132,0,0,0,0,0,0,0,0.0039,0.0033,-0.0007,-0.0001,-0.0005,-0.0035,-0.0041,-0.0052,-0.0083,-0.0069,-0.0072,-0.0078,-0.0101,-0.0119,-0.0121,-0.0138,-0.0131,-0.0132,-0.0133,-0.0133,-0.0149,-0.0149,0,0,0,0,0,0,0.0055,0.0037,-0.0005,-0.0009,0.0017,-0.0036,-0.0043,-0.0047,-0.0084,-0.0089,-0.0078,-0.0079,-0.0118,-0.012,-0.0122,-0.0099,-0.0132,-0.0133,-0.0134,-0.0149,-0.0149,-0.0149,0,0,0,0,0,0,0.0057,0.0052,-0.0001,0.0013,0.0005,-0.0036,-0.0041,-0.0049,-0.0062,-0.009,-0.0095,-0.0082,-0.0118,-0.0121,-0.0129,-0.0102,-0.0134,-0.0135,-0.015,-0.0149,-0.0149,-0.0075,0,0,0,0,0,0,0.0059,0.0053,0.0056,0.0015,0.0004,-0.0012,-0.0041,-0.005,-0.0065,-0.0068,-0.0095,-0.0099,-0.0118,-0.0127,-0.013,-0.0104,-0.0136,-0.015,-0.015,-0.0149,-0.0078,-0.0072,-0.0067,0,0,0,0,0,0.0061,0.0074,0.0057,0.0052,0.0009,-0.0011,-0.0019,-0.0049,-0.0065,-0.0063,-0.0089,-0.0097,-0.0126,-0.0128,-0.0131,-0.0105,-0.015,-0.015,-0.0149,-0.008,-0.0073,-0.0067,0,0,0,0,0,0,0.0102,0.0069,0.005,0.0052,0.0027,-0.0017,-0.0017,-0.0043,-0.0065,-0.0065,-0.0097,-0.0102,-0.01,-0.0118,-0.0119,-0.0111,-0.0138,-0.0138,-0.0084,-0.0078,-0.0073,-0.0039,-0.0137,0,0,0,0,0,0.0111,0.011,0.0072,0.0075,0.0066,0.0023,0.0011,-0.001,-0.0036,-0.0046,-0.0069,-0.009,-0.0102,-0.0102,-0.012,-0.0112,-0.0125,-0.0099,-0.0094,-0.0089,-0.0065,-0.0075,-0.0068,-0.0147,-0.0147,-0.0147,0,0,0.0127,0.0109,0.0108,0.0083,0.006,0.006,0.0016,0.0007,0.0012,-0.0043,-0.0042,-0.0073,-0.0099,-0.0095,-0.0094,-0.0103,-0.0075,-0.0088,-0.0083,-0.0062,-0.0074,-0.0066,-0.0059,-0.0147,-0.0147,-0.0147,0,0,0.0167,0.0144,0.0159,0.0142,0.0117,0.0093,0.0095,0.0055,0.0045,0.0036,-0.0001,-0.0015,-0.0038,-0.0048,-0.0056,-0.0032,-0.0053,-0.0041,0.0024,0.0014,0.0021,0.0027,0.0018,0.0022,-0.0031,-0.0031,-0.0031,0,0.0185,0.0199,0.0161,0.017,0.0167,0.0114,0.0132,0.0113,0.0076,0.008,0.0051,0.0019,-0.001,0.0007,0.001,-0.0015,-0.0028,0.0005,0.0024,0.0029,0.0034,0.0023,0.0027,-0.0027,-0.0028,-0.0028,-0.0028,0,0.0237,0.0243,0.0253,0.0247,0.0238,0.0246,0.0216,0.0212,0.0188,0.0165,0.0167,0.0119,0.0107,0.0089,0.0058,0.0083,0.0059,0.0027,0.0014,0.0047,0.0032,0.0035,-0.0022,-0.0023,-0.0024,-0.0025,0,0,0.0282,0.029,0.0293,0.0305,0.0281,0.0282,0.0297,0.0299,0.0322,0.0279,0.0313,0.0266,0.0236,0.0224,0.0181,0.0169,0.0179,0.0121,0.0119,0.0124,0.0161,0.016,0.0162,0.0149,0.015,0.0151,0.0135,0,0.0332,0.0382,0.0366,0.0404,0.0423,0.0389,0.0409,0.0402,0.0389,0.0406,0.0365,0.0371,0.029,0.0293,0.0267,0.0207,0.0192,0.0187,0.0118,0.0116,0.0122,0.0168,0.017,0.0158,0.0138,0.0139,0.0139,0,0.0389,0.0411,0.0472,0.0491,0.0497,0.0512,0.0541,0.0552,0.0557,0.0552,0.0546,0.0509,0.0497,0.0419,0.0345,0.0345,0.0266,0.0208,0.0205,0.0187,0.0122,0.0121,0.0164,0.0073,0.0144,0.0143,0.0143,0,0.0454,0.0483,0.0542,0.0546,0.0561,0.0587,0.0594,0.0601,0.0637,0.0656,0.0694,0.0645,0.0655,0.0548,0.0424,0.0388,0.0341,0.0272,0.0196,0.0194,0.0177,0.0173,0.0139,0.0224,0.0224,0.0224,0.0224,0,0.0522,0.0561,0.0578,0.0609,0.0668,0.0653,0.0721,0.0725,0.0767,0.0838,0.078,0.0839,0.069,0.064,0.0489,0.0372,0.039,0.0232,0.0202,0.0201,0.0199,0.0102,0.0032,0.0224,0.0224,0.0224,0.0224,0,0.0589,0.061,0.0661,0.0689,0.0705,0.0744,0.0801,0.0854,0.0885,0.0987,0.101,0.1005,0.0949,0.0787,0.0635,0.0485,0.0286,0.0295,0.0309,0.0281,0.0113,0.0047,-0.0025,-0.0091,0.0213,0.0213,0.0213,0,0.0642,0.0676,0.0716,0.0752,0.0769,0.0826,0.0876,0.0912,0.0985,0.1097,0.1168,0.1163,0.1176,0.0961,0.07,0.0461,0.0319,0.0296,0.0223,0.0135,0.0037,-0.0018,-0.0074,0.022,0.022,0.022,0.022,0,0.0711,0.0716,0.0751,0.0822,0.0879,0.0951,0.1033,0.1112,0.1188,0.1293,0.1423,0.145,0.1271,0.1063,0.0744,0.0552,0.0227,0.029,0.0195,0.0054,-0.0004,-0.0092,0.0195,0.0221,0.0221,0.022,0.022,0.022,0.0751,0.0776,0.0817,0.0883,0.0959,0.1072,0.1149,0.1267,0.1413,0.1591,0.16,0.1679,0.1374,0.0954,0.0695,0.0261,0.0237,0.0116,0.0046,0.0002,-0.0065,0.0235,0.0226,0.0226,0.0226,0.0226,0.0226,0,0.0782,0.0812,0.0877,0.0964,0.1059,0.1092,0.1252,0.1352,0.1542,0.1726,0.1837,0.1734,0.135,0.0941,0.0347,0.0062,-0.0069,-0.0081,-0.0166,-0.0212,0.0059,0.0057,0.0018,0.0018,0.0018,0.0018,0.0018,0.0018,0.0805,0.0853,0.088,0.1029,0.1105,0.1246,0.1342,0.1507,0.1665,0.1889,0.1966,0.1987,0.1716,0.0697,0.0019,-0.0164,-0.0358,-0.0381,-0.048,-0.0299,-0.0286,-0.0274,-0.029,-0.0402,-0.0402,-0.0726,-0.0729,-0.0731]}],[{"header":{"parameterUnit":"m.s-1","parameterCategory":2,"la1":30.2991,"la2":30.254,"lo1":-89.0895,"lo2":-89.0444,"dy":0.0017,"dx":0.0017,"nx":28,"ny":28,"refTime":"2024-04-16T09:00:00:Z","depth":"2","parameterNumber":2,"parameterNumberName":"U-component_of_CURRENTS"},"data":[0,0,0,0,0,0,0,0,0,0,0,0,0,0,0,0,0,0,0,0,0,0,0,0,0,0,0,0,0,0,0,0,0,0,0,0,0,0,0,0,0,0,0,0,0,0,0,0,0,0,0,0,0,0,0,0,0,0,0.2403,0.2403,0,0.2472,0.2473,0.2474,0.2503,0.2503,0.2503,0.2502,0.2491,0.2491,0.2491,0,0,0,0,0,0,0,0,0,0,0,0,0,0.2288,0.229,0.2403,0.2403,0.2404,0.2472,0.2473,0.2475,0.2503,0.2503,0.2502,0.2502,0.2491,0.2491,0.2491,0,0,0,0,0,0,0,0,0,0,0,0,0,0.2347,0.2291,0.2403,0.2425,0.2428,0.2472,0.2473,0.2475,0.2503,0.2503,0.2502,0.2502,0.2491,0.2491,0.2491,0.25,0,0,0.2491,0.2491,0,0,0,0,0,0,0,0,0.2344,0.2352,0.2421,0.2424,0.2427,0.2477,0.2429,0.2479,0.2503,0.2477,0.2502,0.2502,0.2478,0.2479,0.2497,0.2499,0.2499,0.2491,0.2491,0.2491,0.2491,0,0,0,0,0,0,0,0.234,0.2349,0.2432,0.2422,0.2426,0.243,0.2438,0.2439,0.2479,0.2479,0.2481,0.2486,0.2479,0.2497,0.2496,0.2499,0.2491,0.2491,0.2491,0.2491,0.2563,0.2564,0,0,0,0,0,0,0.2329,0.2345,0.243,0.2434,0.2381,0.2432,0.2441,0.2463,0.2481,0.2483,0.2486,0.2487,0.2497,0.2496,0.2496,0.2532,0.2491,0.2491,0.2491,0.2561,0.2563,0.2565,0,0,0,0,0,0,0.2327,0.2337,0.2427,0.2388,0.24,0.2434,0.2458,0.2464,0.2488,0.2487,0.2488,0.2503,0.2497,0.2496,0.2532,0.253,0.2491,0.2491,0.2558,0.2561,0.2564,0.2587,0,0,0,0,0,0,0.2323,0.2336,0.2344,0.2388,0.2402,0.2463,0.2459,0.2466,0.249,0.2492,0.2501,0.25,0.2496,0.2532,0.2532,0.2529,0.2491,0.2556,0.256,0.2563,0.2584,0.259,0.2596,0,0,0,0,0,0.2319,0.2329,0.2344,0.2354,0.2414,0.2463,0.2472,0.2494,0.2491,0.2511,0.2534,0.25,0.2554,0.2534,0.2533,0.2531,0.2554,0.2559,0.2563,0.2581,0.2589,0.2596,0,0,0,0,0,0,0.2272,0.2334,0.2351,0.2377,0.2422,0.2468,0.2479,0.2499,0.2533,0.2529,0.2531,0.2533,0.2559,0.2556,0.2534,0.2567,0.2545,0.255,0.256,0.2567,0.2573,0.2607,0.2491,0,0,0,0,0,0.2269,0.23,0.2356,0.2377,0.2399,0.2442,0.2461,0.2483,0.2518,0.2533,0.2545,0.2558,0.2577,0.2581,0.2595,0.2615,0.2645,0.2614,0.2621,0.2625,0.2656,0.2701,0.2713,0.2579,0.2579,0.2579,0,0,0.2255,0.2292,0.2308,0.237,0.2403,0.2447,0.2453,0.2488,0.2527,0.2523,0.2571,0.2578,0.2591,0.2619,0.2629,0.2614,0.2684,0.2631,0.2634,0.2663,0.2707,0.272,0.2731,0.2582,0.2582,0.2581,0,0,0.2253,0.228,0.2313,0.2353,0.2407,0.2441,0.2454,0.2511,0.2538,0.2588,0.2596,0.2626,0.2642,0.2667,0.2676,0.2729,0.2716,0.271,0.276,0.2802,0.2813,0.2824,0.2892,0.2908,0.2709,0.2709,0.2709,0,0.2232,0.2288,0.2327,0.237,0.2399,0.2442,0.2483,0.2525,0.2587,0.2614,0.2605,0.2672,0.2674,0.2726,0.2751,0.274,0.2771,0.2722,0.2809,0.282,0.283,0.2897,0.2914,0.2711,0.271,0.271,0.271,0,0.2274,0.2308,0.2326,0.2402,0.2438,0.2477,0.2539,0.258,0.2607,0.2648,0.2707,0.2735,0.2776,0.2771,0.2779,0.2845,0.2848,0.2809,0.2784,0.2844,0.2912,0.2929,0.2713,0.2712,0.2712,0.2712,0,0,0.225,0.234,0.2344,0.2378,0.2457,0.249,0.2556,0.2633,0.2676,0.2728,0.2793,0.2837,0.2851,0.2868,0.2872,0.2917,0.3013,0.2899,0.29,0.2959,0.3132,0.3008,0.3016,0.2977,0.2979,0.2982,0.3154,0,0.2273,0.2343,0.2387,0.2448,0.2489,0.2543,0.2603,0.267,0.2722,0.2794,0.2841,0.2898,0.2886,0.2906,0.2953,0.3003,0.306,0.2973,0.3074,0.3079,0.2953,0.3031,0.2746,0.2864,0.3172,0.3175,0.3177,0,0.2309,0.2347,0.2409,0.2478,0.2501,0.2541,0.263,0.2689,0.2794,0.284,0.2908,0.2947,0.3051,0.3012,0.3151,0.3092,0.3129,0.3161,0.3167,0.306,0.2987,0.2854,0.2885,0.3206,0.3204,0.3202,0.32,0,0.2288,0.236,0.2405,0.2431,0.2521,0.2551,0.2598,0.2694,0.276,0.2872,0.2936,0.3036,0.3109,0.3172,0.3254,0.3207,0.34,0.333,0.3265,0.3258,0.3043,0.301,0.343,0.3429,0.3429,0.3428,0.3428,0,0.2308,0.2339,0.2392,0.2418,0.2471,0.2526,0.2598,0.2666,0.2776,0.2859,0.2952,0.3045,0.3152,0.3266,0.3306,0.3359,0.3443,0.3311,0.3296,0.3043,0.301,0.3318,0.3303,0.3435,0.3433,0.3432,0.3431,0,0.23,0.234,0.2385,0.2448,0.2469,0.25,0.26,0.2651,0.2761,0.2877,0.2924,0.3098,0.3232,0.3337,0.3467,0.3421,0.348,0.3472,0.3185,0.3131,0.3302,0.3286,0.3415,0.3412,0.341,0.3408,0.3406,0,0.2315,0.2333,0.2386,0.2409,0.2438,0.2491,0.2535,0.2638,0.2699,0.29,0.2956,0.3137,0.3212,0.3374,0.3358,0.3407,0.349,0.3149,0.2985,0.333,0.3303,0.3291,0.3279,0.2736,0.2729,0.2723,0.2718,0,0.2326,0.2333,0.2369,0.2404,0.2437,0.248,0.2541,0.259,0.2716,0.2819,0.2947,0.3017,0.314,0.3045,0.3099,0.3082,0.3106,0.3027,0.3488,0.2757,0.2694,0.2666,0.2676,0.2667,0.2672,0.2676,0.2679,0.2681,0.2328,0.234,0.2371,0.2399,0.2429,0.2445,0.2451,0.2525,0.2605,0.2675,0.2812,0.279,0.2794,0.2702,0.2659,0.2631,0.2833,0.2682,0.2698,0.2721,0.2584,0.2517,0.2436,0.2439,0.2442,0.2445,0.2448,0,0.2321,0.2333,0.2362,0.2379,0.2368,0.2402,0.2438,0.2409,0.2443,0.2467,0.2506,0.2248,0.2185,0.2226,0.2084,0.2075,0.2044,0.1999,0.1931,0.1983,0.203,0.1856,0.1516,0.1513,0.151,0.1508,0,0,0.2327,0.2334,0.2333,0.2304,0.2302,0.225,0.2239,0.2214,0.2189,0.2048,0.1953,0.2049,0.2102,0.1758,0.1731,0.1597,0.1773,0.1532,0.2279,0.2248,0.2291,0.2425,0.2216,0,0,0,0,0]},{"header":{"parameterUnit":"m.s-1","parameterCategory":2,"la1":30.2991,"la2":30.254,"lo1":-89.0895,"lo2":-89.0444,"dy":0.0017,"dx":0.0017,"nx":28,"ny":28,"refTime":"2024-04-16T09:00:00:Z","depth":"2","parameterNumber":3,"parameterNumberName":"V-component_of_CURRENTS"},"data":[0,0,0,0,0,0,0,0,0,0,0,0,0,0,0,0,0,0,0,0,0,0,0,0,0,0,0,0,0,0,0,0,0,0,0,0,0,0,0,0,0,0,0,0,0,0,0,0,0,0,0,0,0,0,0,0,0,0,-0.0041,-0.0042,0,-0.0121,-0.0122,-0.0123,-0.017,-0.017,-0.017,-0.017,-0.0204,-0.0205,-0.0206,0,0,0,0,0,0,0,0,0,0,0,0,0,-0.0001,-0.0001,-0.0041,-0.0042,-0.0043,-0.0121,-0.0122,-0.0123,-0.017,-0.017,-0.017,-0.017,-0.0204,-0.0205,-0.0206,0,0,0,0,0,0,0,0,0,0,0,0,0,-0.0045,-0.0001,-0.0041,-0.0074,-0.0077,-0.012,-0.0122,-0.0124,-0.017,-0.017,-0.017,-0.017,-0.0203,-0.0205,-0.0206,-0.0215,0,0,-0.021,-0.0211,0,0,0,0,0,0,0,0,-0.0042,-0.0047,-0.0068,-0.0072,-0.0076,-0.0134,-0.012,-0.0151,-0.017,-0.0138,-0.017,-0.017,-0.0174,-0.0178,-0.0197,-0.0216,-0.0218,-0.021,-0.0211,-0.0212,-0.0212,0,0,0,0,0,0,0,-0.0039,-0.0044,-0.0075,-0.0069,-0.0074,-0.0109,-0.0115,-0.0127,-0.0156,-0.0141,-0.0144,-0.0149,-0.0177,-0.0196,-0.0198,-0.0218,-0.021,-0.0211,-0.0212,-0.0213,-0.0232,-0.0232,0,0,0,0,0,0,-0.0021,-0.0041,-0.0073,-0.0077,-0.0056,-0.0109,-0.0116,-0.0117,-0.0157,-0.0163,-0.0148,-0.015,-0.0194,-0.0197,-0.02,-0.0178,-0.0212,-0.0213,-0.0214,-0.0233,-0.0232,-0.0232,0,0,0,0,0,0,-0.002,-0.0023,-0.0069,-0.0059,-0.0067,-0.0109,-0.0111,-0.0119,-0.0131,-0.0163,-0.0169,-0.0152,-0.0194,-0.0198,-0.0208,-0.0181,-0.0214,-0.0215,-0.0233,-0.0233,-0.0232,-0.0157,0,0,0,0,0,0,-0.0018,-0.0022,-0.0017,-0.0058,-0.0067,-0.0079,-0.0111,-0.012,-0.0134,-0.0137,-0.0168,-0.0172,-0.0194,-0.0206,-0.021,-0.0184,-0.0216,-0.0233,-0.0233,-0.0232,-0.016,-0.0154,-0.0149,0,0,0,0,0,-0.0016,-0.0001,-0.0016,-0.002,-0.0058,-0.0078,-0.0086,-0.0118,-0.0133,-0.0132,-0.016,-0.017,-0.0205,-0.0207,-0.0211,-0.0185,-0.0234,-0.0233,-0.0232,-0.0162,-0.0155,-0.0149,0,0,0,0,0,0,0.0022,-0.0006,-0.0022,-0.0016,-0.004,-0.0085,-0.0085,-0.0111,-0.0135,-0.0135,-0.017,-0.0176,-0.0176,-0.0195,-0.0197,-0.0191,-0.0219,-0.0219,-0.0165,-0.0158,-0.0153,-0.0119,-0.0217,0,0,0,0,0,0.0033,0.0035,0.0001,0.0006,-0.0001,-0.0043,-0.0056,-0.0077,-0.0104,-0.0115,-0.014,-0.0163,-0.0178,-0.0179,-0.02,-0.0194,-0.021,-0.0181,-0.0175,-0.0171,-0.0148,-0.0161,-0.0154,-0.023,-0.023,-0.023,0,0,0.0049,0.0034,0.0035,0.0014,-0.0008,-0.0008,-0.0051,-0.0059,-0.0055,-0.0113,-0.0113,-0.0146,-0.0176,-0.0174,-0.0174,-0.0183,-0.016,-0.017,-0.0165,-0.0144,-0.0159,-0.0152,-0.0145,-0.0229,-0.0229,-0.023,0,0,0.0089,0.0071,0.0087,0.0072,0.005,0.0025,0.0028,-0.0011,-0.0021,-0.0032,-0.0071,-0.0087,-0.0113,-0.0127,-0.0137,-0.0113,-0.0136,-0.0121,-0.0056,-0.0069,-0.0063,-0.0057,-0.0072,-0.0068,-0.0111,-0.0111,-0.0111,0,0.0107,0.0125,0.0089,0.01,0.0098,0.0047,0.0066,0.0046,0.0008,0.0011,-0.0017,-0.0054,-0.0085,-0.0073,-0.007,-0.0096,-0.0111,-0.0075,-0.006,-0.0055,-0.005,-0.0067,-0.0063,-0.0107,-0.0107,-0.0108,-0.0108,0,0.016,0.0169,0.018,0.0177,0.0168,0.0176,0.0147,0.0143,0.0119,0.0096,0.0096,0.0045,0.003,0.0012,-0.0021,0.0001,-0.0024,-0.0056,-0.007,-0.0037,-0.0058,-0.0055,-0.0102,-0.0103,-0.0104,-0.0105,0,0,0.0206,0.0217,0.022,0.0233,0.0211,0.0212,0.0226,0.0227,0.0248,0.0206,0.0237,0.0188,0.0158,0.0144,0.01,0.0086,0.0091,0.0038,0.0035,0.0035,0.0064,0.001,0.0007,0.0061,0.0062,0.0063,0.0035,0,0.0257,0.0309,0.0293,0.0332,0.0352,0.0317,0.0336,0.0328,0.0313,0.0328,0.0285,0.0289,0.0211,0.0212,0.0184,0.012,0.0101,0.0102,0.0022,0.002,-0.0022,0.0009,0.0029,0.0003,0.0037,0.0037,0.0037,0,0.0315,0.0339,0.0401,0.0418,0.0425,0.0439,0.0465,0.0474,0.0476,0.047,0.0462,0.0423,0.0408,0.0333,0.0252,0.0256,0.0173,0.0112,0.0109,0.004,-0.0029,-0.0025,0.0005,0.004,0.004,0.004,0.004,0,0.038,0.0411,0.047,0.0475,0.0488,0.0513,0.0519,0.0523,0.0557,0.0571,0.0606,0.0554,0.0562,0.0452,0.0324,0.0291,0.0233,0.0166,0.004,0.0034,0.0029,0.0021,0.0111,0.0111,0.0111,0.0111,0.0112,0,0.045,0.049,0.0507,0.0537,0.0594,0.0579,0.0643,0.0646,0.0684,0.0749,0.0691,0.0743,0.0594,0.0538,0.0385,0.0234,0.0278,0.0068,0.003,0.0052,0.0047,0.0059,0.0054,0.011,0.0111,0.0111,0.0111,0,0.0518,0.054,0.059,0.0617,0.0632,0.0669,0.0723,0.0772,0.0801,0.0895,0.0917,0.0905,0.083,0.0666,0.0505,0.0333,0.0178,0.0109,0.0144,0.011,-0.0032,-0.0034,-0.0043,-0.0045,-0.0046,-0.0048,-0.0049,0,0.0572,0.0607,0.0645,0.0678,0.0695,0.0749,0.0796,0.083,0.0898,0.1,0.1066,0.1041,0.1014,0.0759,0.0493,0.0226,0.0189,0.0043,-0.0033,-0.0009,-0.0045,-0.0044,-0.0043,-0.0011,-0.0012,-0.0013,-0.0013,0,0.0642,0.0647,0.068,0.0746,0.08,0.0867,0.0946,0.1023,0.1094,0.1179,0.128,0.1268,0.1052,0.0798,0.0441,0.0251,0.0079,0.0017,0.0065,0.0013,0.0015,-0.0019,-0.0018,-0.0019,-0.0018,-0.0018,-0.0018,-0.0017,0.068,0.0703,0.0741,0.0802,0.0876,0.0984,0.1058,0.1159,0.1285,0.1389,0.1401,0.135,0.109,0.0604,0.0344,0.0052,0.0043,-0.0106,-0.0101,-0.0096,-0.0099,-0.0101,-0.0157,-0.0157,-0.0157,-0.0158,-0.0158,0,0.0702,0.0736,0.0797,0.0877,0.0961,0.1004,0.1156,0.1222,0.1376,0.1415,0.146,0.1171,0.0912,0.0617,0.0191,-0.0081,-0.0088,-0.0179,-0.0118,-0.0112,-0.0106,-0.0107,-0.0168,-0.0169,-0.0169,-0.017,0,0,0.0722,0.0761,0.0785,0.0923,0.1004,0.1138,0.1233,0.1329,0.1377,0.1375,0.1317,0.1249,0.0924,0.0606,0.0293,0.0067,0.0023,0.0004,0.0036,0.015,0.0159,-0.0045,-0.0038,0,0,0,0,0]}],[{"header":{"parameterUnit":"m.s-1","parameterCategory":2,"la1":30.2991,"la2":30.254,"lo1":-89.0895,"lo2":-89.0444,"dy":0.0017,"dx":0.0017,"nx":28,"ny":28,"refTime":"2024-04-16T09:00:00:Z","depth":"4","parameterNumber":2,"parameterNumberName":"U-component_of_CURRENTS"},"data":[0,0,0,0,0,0,0,0,0,0,0,0,0,0,0,0,0,0,0,0,0,0,0,0,0,0,0,0,0,0,0,0,0,0,0,0,0,0,0,0,0,0,0,0,0,0,0,0,0,0,0,0,0,0,0,0,0,0,0.0979,0.098,0,0.0912,0.091,0.0907,0.1031,0.1037,0.1043,0.1049,0.1293,0.1294,0.1295,0,0,0,0,0,0,0,0,0,0,0,0,0,0.0985,0.0984,0.0979,0.098,0.0981,0.0912,0.0909,0.0906,0.103,0.1038,0.1045,0.1052,0.1293,0.1294,0.1295,0,0,0,0,0,0,0,0,0,0,0,0,0,0.0936,0.0983,0.0979,0.1051,0.1058,0.0913,0.0909,0.0906,0.1028,0.1038,0.1047,0.1056,0.1293,0.1294,0.1295,0.1118,0,0,0.1299,0.1299,0,0,0,0,0,0,0,0,0.0939,0.0933,0.1039,0.1046,0.1054,0.1009,0.1003,0.1,0.1026,0.1016,0.1049,0.106,0.1235,0.1241,0.1172,0.1129,0.114,0.1299,0.13,0.13,0.13,0,0,0,0,0,0,0,0.0943,0.0936,0.093,0.104,0.1049,0.101,0.1013,0.0998,0.1063,0.1018,0.1032,0.1057,0.1239,0.117,0.118,0.1143,0.1299,0.13,0.1301,0.1301,0.1415,0.1417,0,0,0,0,0,0,0.0996,0.0939,0.0933,0.093,0.1043,0.1005,0.1007,0.0996,0.1057,0.1079,0.1049,0.1063,0.1164,0.1179,0.119,0.1369,0.13,0.1301,0.1302,0.1413,0.1416,0.1418,0,0,0,0,0,0,0.0995,0.0994,0.0936,0.0953,0.0947,0.0999,0.0983,0.099,0.105,0.1081,0.1107,0.1121,0.1171,0.1189,0.1303,0.1368,0.1302,0.1303,0.141,0.1414,0.1417,0.1483,0,0,0,0,0,0,0.0994,0.0992,0.1009,0.0956,0.0949,0.0958,0.0977,0.0983,0.1054,0.1074,0.1148,0.1172,0.118,0.1301,0.1304,0.1368,0.1304,0.1407,0.1412,0.1416,0.1478,0.1489,0.1498,0,0,0,0,0,0.0994,0.0996,0.1008,0.1011,0.0966,0.0962,0.0953,0.1005,0.105,0.1086,0.1151,0.1177,0.1333,0.1302,0.1305,0.1372,0.1405,0.141,0.1415,0.1474,0.1487,0.1497,0,0,0,0,0,0,0.1019,0.1008,0.1022,0.1025,0.1046,0.0996,0.1005,0.1047,0.1098,0.113,0.1181,0.1208,0.1305,0.1334,0.13,0.1421,0.138,0.1386,0.1424,0.1436,0.1445,0.1386,0.1305,0,0,0,0,0,0.1023,0.1015,0.1022,0.1027,0.103,0.1023,0.1033,0.107,0.1103,0.1136,0.1164,0.1226,0.1289,0.1376,0.137,0.1447,0.1448,0.1501,0.1511,0.1519,0.1475,0.1601,0.1618,0.1435,0.1435,0.1435,0,0,0.1029,0.1027,0.1024,0.1033,0.1013,0.1007,0.1049,0.1075,0.1113,0.1149,0.1185,0.122,0.1302,0.137,0.1426,0.1445,0.1564,0.1526,0.1532,0.1483,0.1609,0.1626,0.1642,0.1439,0.1438,0.1438,0,0,0.1012,0.103,0.1009,0.1027,0.1052,0.1038,0.1085,0.1062,0.1116,0.1156,0.1197,0.1278,0.1347,0.1407,0.1466,0.1528,0.1565,0.158,0.1639,0.1765,0.178,0.1794,0.178,0.1792,0.1645,0.1646,0.1646,0,0.1035,0.1001,0.1014,0.1007,0.1029,0.1073,0.1076,0.11,0.1131,0.1183,0.1206,0.1288,0.1345,0.1491,0.1523,0.1544,0.1598,0.1594,0.1777,0.1791,0.1804,0.1787,0.1799,0.1649,0.1649,0.1649,0.1648,0,0.0956,0.099,0.0979,0.0972,0.1002,0.1012,0.1065,0.1088,0.1143,0.1192,0.1305,0.1342,0.1458,0.1478,0.1528,0.1674,0.1669,0.173,0.1744,0.1827,0.1802,0.1814,0.1655,0.1654,0.1652,0.1651,0,0,0.0906,0.0916,0.0935,0.0967,0.0995,0.1019,0.1059,0.1134,0.1204,0.1255,0.1351,0.1445,0.1525,0.159,0.167,0.1747,0.1862,0.1809,0.1814,0.1781,0.2082,0.1905,0.19,0.202,0.2023,0.2026,0.2012,0,0.0862,0.0841,0.0867,0.092,0.0928,0.0992,0.1046,0.1142,0.1209,0.1293,0.1423,0.1547,0.1585,0.1684,0.1779,0.1834,0.1906,0.1852,0.2013,0.2012,0.1841,0.1913,0.2037,0.2021,0.2024,0.2025,0.2027,0,0.0779,0.0808,0.0811,0.0933,0.0945,0.0994,0.1089,0.1158,0.1306,0.1378,0.1532,0.1649,0.1816,0.1816,0.199,0.1993,0.2045,0.2036,0.204,0.1849,0.186,0.1933,0.2048,0.2046,0.2045,0.2043,0.2042,0,0.0731,0.0792,0.0804,0.0833,0.0943,0.1004,0.1081,0.1201,0.1284,0.1481,0.156,0.1776,0.1921,0.2027,0.2096,0.2116,0.2177,0.2232,0.2076,0.206,0.2191,0.2177,0.2317,0.2317,0.2317,0.2317,0.2317,0,0.0665,0.0721,0.0805,0.0848,0.0928,0.103,0.1136,0.1219,0.136,0.1467,0.1683,0.175,0.2003,0.2095,0.2119,0.2116,0.2265,0.204,0.2065,0.2211,0.22,0.2196,0.2182,0.2317,0.2317,0.2317,0.2317,0,0.0604,0.0645,0.0712,0.0855,0.0912,0.0987,0.1162,0.1211,0.1394,0.1512,0.1619,0.1822,0.1957,0.2075,0.2187,0.2151,0.2134,0.209,0.2134,0.2167,0.1907,0.1898,0.1927,0.1921,0.1916,0.1912,0.1908,0,0.0537,0.0562,0.0707,0.0747,0.0826,0.0956,0.1018,0.1206,0.1257,0.1494,0.1525,0.1747,0.1872,0.1853,0.1978,0.2012,0.2002,0.1973,0.1998,0.1855,0.1878,0.1876,0.1873,0.19,0.1899,0.1898,0.1897,0,0.046,0.0519,0.0567,0.065,0.0733,0.0799,0.0928,0.0975,0.1185,0.1365,0.1448,0.1549,0.165,0.1737,0.18,0.1804,0.1986,0.1921,0.1933,0.1956,0.1824,0.1851,0.1854,0.1879,0.1882,0.1883,0.1884,0,0.0395,0.0389,0.0454,0.0524,0.0595,0.0628,0.0721,0.0819,0.0928,0.1231,0.1216,0.1414,0.1595,0.1619,0.1629,0.1677,0.1677,0.1634,0.1661,0.1681,0.1615,0.1413,0.1344,0,0,0,0,0,0.0322,0.0305,0.0327,0.0398,0.0453,0.0512,0.0634,0.073,0.0959,0.0982,0.1126,0.1213,0.1322,0.1373,0.1384,0.1501,0.1658,0.15,0.1615,0.1783,0.1803,0.1753,0,0,0,0,0,0,0.0273,0.0269,0.0275,0.0267,0.0303,0.0352,0.0424,0.0567,0.0609,0.0858,0.0915,0.1116,0.1222,0.1323,0.1356,0.1384,0.1423,0.1628,0.1624,0.1772,0.179,0.1806,0.1762,0,0,0,0,0]},{"header":{"parameterUnit":"m.s-1","parameterCategory":2,"la1":30.2991,"la2":30.254,"lo1":-89.0895,"lo2":-89.0444,"dy":0.0017,"dx":0.0017,"nx":28,"ny":28,"refTime":"2024-04-16T09:00:00:Z","depth":"4","parameterNumber":3,"parameterNumberName":"V-component_of_CURRENTS"},"data":[0,0,0,0,0,0,0,0,0,0,0,0,0,0,0,0,0,0,0,0,0,0,0,0,0,0,0,0,0,0,0,0,0,0,0,0,0,0,0,0,0,0,0,0,0,0,0,0,0,0,0,0,0,0,0,0,0,0,-0.0019,-0.002,0,-0.0045,-0.0044,-0.0044,-0.0092,-0.0094,-0.0095,-0.0097,-0.0206,-0.0207,-0.0208,0,0,0,0,0,0,0,0,0,0,0,0,0,-0.002,-0.0019,-0.0019,-0.002,-0.0021,-0.0045,-0.0044,-0.0044,-0.0092,-0.0094,-0.0096,-0.0098,-0.0205,-0.0207,-0.0209,0,0,0,0,0,0,0,0,0,0,0,0,0,-0.0023,-0.0019,-0.0019,-0.0053,-0.0057,-0.0045,-0.0044,-0.0044,-0.0092,-0.0094,-0.0096,-0.0098,-0.0205,-0.0207,-0.0209,-0.0175,0,0,-0.0215,-0.0216,0,0,0,0,0,0,0,0,-0.0023,-0.0022,-0.0047,-0.0051,-0.0055,-0.0074,-0.0085,-0.0094,-0.0091,-0.0071,-0.0097,-0.01,-0.0172,-0.0177,-0.0165,-0.018,-0.0185,-0.0216,-0.0217,-0.0218,-0.0218,0,0,0,0,0,0,0,-0.0023,-0.0022,-0.0022,-0.0048,-0.0053,-0.007,-0.0072,-0.0086,-0.0104,-0.0073,-0.0078,-0.0091,-0.0174,-0.0163,-0.0169,-0.0186,-0.0216,-0.0217,-0.0219,-0.022,-0.0266,-0.0266,0,0,0,0,0,0,-0.003,-0.0021,-0.0022,-0.0024,-0.0052,-0.0069,-0.0071,-0.006,-0.0102,-0.0113,-0.0089,-0.0094,-0.0158,-0.0166,-0.0173,-0.022,-0.0218,-0.022,-0.0221,-0.0267,-0.0266,-0.0266,0,0,0,0,0,0,-0.0029,-0.0028,-0.0021,-0.003,-0.0031,-0.0067,-0.0054,-0.0059,-0.0076,-0.0115,-0.0126,-0.0105,-0.016,-0.017,-0.0217,-0.0222,-0.0221,-0.0223,-0.0267,-0.0267,-0.0266,-0.0261,0,0,0,0,0,0,-0.0029,-0.0027,-0.0024,-0.003,-0.0031,-0.0032,-0.0052,-0.0058,-0.0082,-0.0088,-0.0131,-0.0142,-0.0163,-0.0214,-0.0219,-0.0225,-0.0224,-0.0267,-0.0267,-0.0266,-0.0261,-0.0261,-0.026,0,0,0,0,0,-0.0028,-0.0019,-0.0023,-0.0024,-0.0023,-0.0033,-0.0034,-0.0063,-0.0081,-0.0086,-0.0126,-0.0142,-0.0217,-0.0216,-0.0222,-0.0229,-0.0267,-0.0267,-0.0266,-0.0261,-0.0261,-0.026,0,0,0,0,0,0,-0.0021,-0.0023,-0.0028,-0.0021,-0.0035,-0.0044,-0.0045,-0.0069,-0.0096,-0.0106,-0.0146,-0.0159,-0.0192,-0.0211,-0.0209,-0.024,-0.0242,-0.0243,-0.0236,-0.0235,-0.0235,-0.0205,-0.0226,0,0,0,0,0,-0.0014,-0.0004,-0.0018,-0.0011,-0.0011,-0.0027,-0.0036,-0.0057,-0.0083,-0.0097,-0.0119,-0.0151,-0.0187,-0.0217,-0.0229,-0.0256,-0.0264,-0.0262,-0.0262,-0.0261,-0.0241,-0.0259,-0.0258,-0.0266,-0.0266,-0.0266,0,0,-0.0013,-0.0011,-0.0008,-0.0009,-0.0008,0.0002,-0.0036,-0.0047,-0.0051,-0.0104,-0.0104,-0.0142,-0.0189,-0.0214,-0.0232,-0.0243,-0.0267,-0.0261,-0.0261,-0.024,-0.0259,-0.0258,-0.0257,-0.0266,-0.0266,-0.0266,0,0,0.0008,0.0008,0.0028,0.003,0.002,0.001,0.0001,-0.0007,-0.0025,-0.004,-0.0081,-0.0124,-0.0157,-0.0196,-0.0225,-0.0229,-0.0252,-0.0241,-0.0232,-0.0251,-0.0251,-0.025,-0.0277,-0.0279,-0.0256,-0.0256,-0.0256,0,0.0006,0.0039,0.0027,0.0055,0.0053,0.0015,0.003,0.0018,-0.0008,-0.0022,-0.004,-0.0103,-0.014,-0.0205,-0.0208,-0.0226,-0.0246,-0.0236,-0.0251,-0.025,-0.0249,-0.0277,-0.0279,-0.0256,-0.0256,-0.0256,-0.0256,0,0.0058,0.0074,0.009,0.0116,0.011,0.0116,0.0094,0.0092,0.0065,0.0043,-0.0007,-0.0065,-0.0122,-0.0137,-0.0177,-0.0209,-0.0228,-0.0237,-0.0252,-0.0248,-0.0278,-0.028,-0.0255,-0.0256,-0.0256,-0.0256,0,0,0.0058,0.0114,0.0117,0.0136,0.014,0.0138,0.0143,0.0123,0.0114,0.0078,0.0051,-0.0017,-0.0074,-0.011,-0.0181,-0.0193,-0.0217,-0.0218,-0.0219,-0.0243,-0.0271,-0.0259,-0.0261,-0.0239,-0.0239,-0.0239,-0.03,0,0.0092,0.0164,0.0167,0.0202,0.023,0.0207,0.021,0.0185,0.0153,0.0128,0.0041,-0.0007,-0.0067,-0.0116,-0.0149,-0.0189,-0.0219,-0.0199,-0.027,-0.0272,-0.026,-0.0261,-0.0238,-0.0302,-0.0302,-0.0303,-0.0303,0,0.0134,0.0173,0.0235,0.0249,0.0256,0.0268,0.0257,0.0247,0.02,0.0172,0.0092,0.0019,-0.006,-0.0089,-0.018,-0.0172,-0.0221,-0.024,-0.0244,-0.0227,-0.0262,-0.0301,-0.0307,-0.0307,-0.0307,-0.0306,-0.0306,0,0.0153,0.0202,0.0251,0.0268,0.0292,0.0301,0.0293,0.0267,0.026,0.0187,0.0171,0.0049,-0.0007,-0.0082,-0.0172,-0.0179,-0.0232,-0.0256,-0.0294,-0.0295,-0.0291,-0.0291,-0.0297,-0.0297,-0.0297,-0.0297,-0.0296,0,0.019,0.0221,0.0271,0.0305,0.0341,0.0328,0.0346,0.0328,0.0293,0.0285,0.0171,0.0131,0.0003,-0.007,-0.0154,-0.0235,-0.0242,-0.0279,-0.0303,-0.0291,-0.029,-0.0295,-0.0293,-0.0299,-0.0298,-0.0298,-0.0298,0,0.0214,0.0256,0.0307,0.0345,0.0365,0.0384,0.0405,0.0419,0.0369,0.0354,0.0326,0.0207,0.0113,-0.0013,-0.0116,-0.0197,-0.0275,-0.0304,-0.0283,-0.0307,-0.0334,-0.0332,-0.0352,-0.0352,-0.0352,-0.0352,-0.0352,0,0.0243,0.0283,0.0349,0.0392,0.0418,0.0455,0.0495,0.047,0.0462,0.0401,0.0382,0.0289,0.0197,0.0051,-0.0079,-0.0245,-0.0266,-0.0323,-0.0322,-0.0314,-0.0336,-0.0334,-0.0332,-0.0352,-0.0352,-0.0352,-0.0352,0,0.0281,0.0306,0.035,0.0443,0.0504,0.0556,0.0579,0.0586,0.0541,0.0514,0.0434,0.0325,0.0225,0.0072,-0.0055,-0.0175,-0.0292,-0.0323,-0.0324,-0.0323,-0.0314,-0.0335,-0.0333,-0.0351,-0.0351,-0.0351,-0.0351,0,0.0302,0.0334,0.0398,0.0474,0.0558,0.061,0.063,0.0616,0.0606,0.0515,0.0503,0.0371,0.029,0.0109,-0.001,-0.0125,-0.0158,-0.0203,-0.0211,-0.0213,-0.0155,-0.0122,-0.0109,0,0,0,0,0,0.0323,0.0361,0.0428,0.0501,0.0583,0.0624,0.0663,0.0662,0.0634,0.0594,0.0536,0.0435,0.0253,0.016,0.0051,-0.001,-0.0178,-0.0143,-0.0233,-0.035,-0.035,-0.0305,0,0,0,0,0,0,0.0342,0.0399,0.0421,0.0508,0.0562,0.0641,0.0675,0.0664,0.0608,0.0568,0.0471,0.0405,0.0226,0.0321,0.0049,0.0011,-0.0063,-0.0237,-0.024,-0.035,-0.035,-0.035,-0.0304,0,0,0,0,0]}]]